VNREDSAT 1

Last updated on Mon Sep 21 2026 00:02:45 GMT+0000 (Coordinated Universal Time)

1 39160U 13021B 26263.58547134 .00000254 00000+0 56179-4 0 9994 2 39160 97.8988 313.2824 0001245 82.8461 277.2884 14.64747810714253
UTC large
Height (km)
Speed (km/s)
/
Latitude / Longitude
Inclination (degrees)
Orbital Period (minutes)
Azimuth
Elevation
Range (km)
Doppler Factor

Next 0 passes for location: London (51.5072 / 0.1276)

No passes found over London.
VNREDSAT 1